ONEWEB-0693, 61601

Orbit data source: Space-Track

ONEWEB-0693, 61601 is a payload satellite owned by Eut. One Web (UK) in LEO that was launched on Sun, 20 Oct 2024 UTC via an FALCON 9 launch vehicle from the Air Force Western Test Range (AFWTR). Payload-class satellites include a variety of spacecraft equipped with specific instruments for various scientific and technological missions. These include communications satellites like Starlink; space stations such as the ISS; scientific satellites like the Hubble; Earth observation satellites from companies like Planet Labs, Umbra, and HawkEye 360; GPS; miniature CubeSats for education and research; and military/defense satellites.

Loading next visibility...
Identifier
61601, 2024-188H
Orbit
LEO
Country
Flag of UKUK
Related business
Manufacturer
One Web
Mission
Operational Commercial Communications
Bus & Motor
ARROW, Unknown motor
Mass
148 kg wet, ~140 kg dry
Launch date (UTC)
2024-10-20 (2 years ago)
Launch vehicle
FALCON 9
Launch site
Air Force Western Test Range (AFWTR)
Object type
Payload
Rocket body
Debris
Shape & HBR
Trap Box + 2 Pan, 6.7 m
Radar Cross Section
3.464 m², Large (>1 m²)

Expand to show TLE details & history
Last TLE update: 11 hours ago

TLE from 11 hours ago
0 ONEWEB-0693
1 61601U 24188H   26236.61384229  .00000042  00000-0  75739-4 0  9992
2 61601  87.9184 352.2928 0002637 105.3353 254.8070 13.17649862 94895
Epoch: 2026-08-24T14:43Z
TLE epoch observation values (Epoch: 2026-08-24T14:43:55.973Z)
Latitude
-0.00005°
Longitude
158.41655°
Altitude
1,197.132 km
Speed
7.255 km/s
True Right ascension
23h 29m 10s
True Declination
0° 00' 00"
Sunlit
Object was in full shadow at epoch
Visualization orbit readout
Latitude
Unknown
Longitude
Unknown
Altitude
Unknown
Speed
Unknown
Apparent Right ascension
Unknown
Apparent Declination
Unknown
Sunlit
N/A
Visualization observer readout
Local Sidereal Time
17:07:30
Azimuth
Unknown
Elevation
Unknown
Doppler factor
Unknown
Orbital elements
Apogee altitude
1,192.815 km
Perigee altitude
1,188.823 km
Semi-major axis
7,568.956 km
Eccentricity
0.00026
Inclination
87.9184°
RAAN
352.2928°
Arg. of periapsis
105.3353°
True anomaly
254.77784°
Mean anomaly
254.807°
Eccentric anomaly
254.79242°
Mean motion
3.29602 °/min
Orbital period
109.22 mins
BSTAR
0.000075739
Loading maneuver chart data...
Computing Atmospheric mass density...
Loading historical data...
Loading historical data...
Loading historical data...
Loading historical data...
Loading historical data...
Loading historical data...
Loading historical data...

Documentation

Showing up to 5 results
|